New Orleans Lakefront, LA

5:54 AM CDT on May 28, 2017 (GMT -0500)
Lakefront

Weather History for KNEW - November, 2011

Change the Weather History Date:

Thursday, November 3, 2011

  Actual Average Record
Temperature  
Mean Temperature 64 °F 66 °F  
Max Temperature 73 °F 75 °F 85 °F (2003)
Min Temperature 55 °F 57 °F 28 °F (1966)
Degree Days  
Heating Degree Days 1 2  
Month to date heating degree days 4 6  
Since 1 July heating degree days 32 31  
Cooling Degree Days 0 4  
Month to date cooling degree days 5 12  
Year to date cooling degree days 3361 2921  
Growing Degree Days 14 (Base 50)    
Moisture  
Dew Point 56 °F    
Average Humidity 70    
Maximum Humidity 93    
Minimum Humidity 46    
Precipitation  
Precipitation 0.02 in 0.13 in 1.37 in (1961)
Month to date precipitation 0.02 0.40  
Year to date precipitation 50.17 53.12  
Snow  
Snow 0.00 in - - ()
Month to date snowfall 0.0  
Since 1 July snowfall 0.0  
Since 1 September snowfall 0.0  
Snow Depth 0.00 in    
Sea Level Pressure  
Sea Level Pressure 30.08 in    
Wind  
Wind Speed 11 mph (WNW)    
Max Wind Speed 23 mph    
Max Gust Speed 31 mph    
Visibility 8 miles    
Events Rain    
T = Trace of Precipitation, MM = Missing Value Source: NWS Daily Summary

Daily Weather History Graph

Daily Weather History Graph

Search for Another Location

Airport or City:

Trip Planner

Search our weather history database for the weather conditions in past years. The results will help you decide how hot, cold, wet, or windy it might be!

Date:

Astronomy

Nov. 03, 2011 Rise Set
Actual Time 7:15 AM CDT 6:11 PM CDT
Civil Twilight 6:50 AM CDT 6:36 PM CDT
Nautical Twilight 6:22 AM CDT 7:04 PM CDT
Astronomical Twilight 5:54 AM CDT 7:32 PM CDT
Moon 2:09 PM CDT (11/3) 12:56 AM CDT (11/3)
Length of Visible Light 11h 45m
Length of Day
10h 56m
First Quarter, 60% of the Moon is Illuminated
Nov 3
First Quarter
Nov 10
Full
Nov 18
Last Quarter
Nov 25
New
Dec 2
First Quarter

Hourly Weather History & Observations

Time (CDT) Temp. Dew Point Humidity Pressure Visibility Wind Dir Wind Speed Gust Speed Precip Events Conditions
12:53 AM 66.9 °F 64.0 °F 90% 30.10 in 9.0 mi East 6.9 mph - N/A   Clear
1:53 AM 66.9 °F 63.0 °F 87% 30.09 in 9.0 mi SE 6.9 mph - N/A   Mostly Cloudy
2:53 AM 68.0 °F 64.0 °F 87% 30.07 in 10.0 mi SSE 5.8 mph - N/A   Overcast
3:53 AM 68.0 °F 64.0 °F 87% 30.06 in 10.0 mi SE 10.4 mph - N/A   Mostly Cloudy
4:53 AM 69.1 °F 64.0 °F 84% 30.06 in 10.0 mi SSE 3.5 mph - N/A   Overcast
5:53 AM 69.1 °F 64.0 °F 84% 30.06 in 10.0 mi SSW 5.8 mph - N/A   Mostly Cloudy
6:53 AM 66.9 °F 64.0 °F 90% 30.04 in 9.0 mi SSE 8.1 mph - N/A   Clear
7:53 AM 68.0 °F 64.9 °F 90% 30.04 in 6.0 mi South 5.8 mph - N/A   Clear
8:53 AM 72.0 °F 64.9 °F 78% 30.06 in 10.0 mi SSW 9.2 mph - N/A   Mostly Cloudy
9:53 AM 70.0 °F 64.9 °F 84% 30.07 in 4.0 mi WNW 24.2 mph 28.8 mph 0.00 in Rain Rain
9:56 AM 69.8 °F 64.4 °F 83% 30.09 in 2.5 mi WNW 21.9 mph 28.8 mph N/A Rain Rain
10:18 AM 66.2 °F 64.4 °F 94% 30.11 in 3.0 mi West 16.1 mph - 0.01 in Rain Rain
10:24 AM 66.2 °F 64.4 °F 94% 30.11 in 2.5 mi West 17.3 mph - 0.02 in Rain Rain
10:35 AM 66.2 °F 64.4 °F 94% 30.11 in 4.0 mi West 17.3 mph - 0.02 in Rain Rain
10:42 AM 66.2 °F 64.4 °F 94% 30.11 in 3.0 mi WNW 15.0 mph - 0.02 in Rain Rain
10:53 AM 66.0 °F 64.0 °F 93% 30.09 in 4.0 mi WNW 19.6 mph - 0.02 in Rain Rain
11:43 AM 60.8 °F 57.2 °F 88% 30.11 in 2.0 mi NW 26.5 mph - 0.05 in Rain Rain
11:53 AM 59.0 °F 55.9 °F 90% 30.10 in 10.0 mi NW 23.0 mph 31.1 mph 0.05 in   Overcast
12:41 PM 59.0 °F 55.4 °F 88% 30.09 in 10.0 mi NW 23.0 mph - N/A   Overcast
12:53 PM 59.0 °F 54.0 °F 83% 30.07 in 10.0 mi WNW 23.0 mph - N/A   Overcast
1:53 PM 60.1 °F 52.0 °F 75% 30.05 in 10.0 mi NW 18.4 mph - N/A   Overcast
2:08 PM 60.8 °F 51.8 °F 72% 30.06 in 10.0 mi NW 21.9 mph - N/A   Mostly Cloudy
2:24 PM 62.6 °F 51.8 °F 68% 30.06 in 10.0 mi NW 18.4 mph - N/A   Scattered Clouds
2:53 PM 62.1 °F 51.1 °F 67% 30.04 in 10.0 mi WNW 20.7 mph 26.5 mph N/A   Clear
3:53 PM 63.0 °F 50.0 °F 63% 30.03 in 10.0 mi WNW 20.7 mph - N/A   Clear
4:53 PM 63.0 °F 48.0 °F 58% 30.04 in 10.0 mi NW 19.6 mph - N/A   Mostly Cloudy
5:53 PM 62.1 °F 46.9 °F 58% 30.04 in 10.0 mi NW 18.4 mph - N/A   Clear
6:53 PM 61.0 °F 45.0 °F 56% 30.07 in 10.0 mi NW 20.7 mph 28.8 mph N/A   Clear
7:53 PM 60.1 °F 43.0 °F 53% 30.09 in 10.0 mi NNW 19.6 mph - N/A   Clear
8:53 PM 60.1 °F 42.1 °F 51% 30.11 in 10.0 mi NNW 21.9 mph 28.8 mph N/A   Clear
9:53 PM 59.0 °F 39.9 °F 49% 30.12 in 10.0 mi NNW 23.0 mph 29.9 mph N/A   Clear
10:53 PM 57.9 °F 41.0 °F 53% 30.13 in 10.0 mi NNW 21.9 mph - N/A   Clear
11:53 PM 57.2 °F 42.8 °F 59% 30.14 in 10.0 mi NNW 19.6 mph - N/A   Clear